Location: Strawberry
(45.6646°N, 111.9596°W)
Time: 18:46:26
(UTC+00:00)

ISS - Visible Passes

Search period start: 17 August 2022 00:00
Search period end: 27 August 2022 00:00
Orbit: 412 x 420 km, 51.6° (Epoch: 17 August)

Date Brightness Start Highest point End Pass type
(mag) Time Alt. Az. Time Alt. Az. Time Alt. Az.
23 Aug -2.1 12:01:06 10° SSW 12:04:01 28° SE 12:06:57 10° E visible
24 Aug -1.5 11:13:27 11° S 11:15:32 18° SE 11:17:52 10° E visible
25 Aug -1.0 10:26:56 11° SE 10:27:06 11° SE 10:27:53 10° ESE visible
25 Aug -3.6 11:59:57 10° SW 12:03:16 68° SSE 12:06:37 10° ENE visible
26 Aug -2.9 11:13:13 25° SSW 11:14:40 41° SE 11:17:51 10° ENE visible
